EW5847 Weather Reports


time (UTC)temp
C
wind
direction
speed
KPH
gust
KPH
rain 1hr
cm
rain 24hr
cm
rain mn
cm
humidity
%
barometer
mb
20260506015201 16 321 0.0 0.0 0.00 0.00 0.00 67 1007.5
20260506014650 16 321 0.0 0.0 0.00 0.00 0.00 68 1007.4
20260506014149 16 321 0.0 0.0 0.00 0.00 0.00 67 1007.4
20260506013643 16 321 0.0 0.0 0.00 0.00 0.00 67 1007.5
20260506013404 17 321 0.0 0.0 0.00 0.00 0.00 66 1007.5
20260506012631 17 321 0.0 0.0 0.00 0.00 0.00 66 1007.4
20260506012126 17 321 0.0 0.0 0.00 0.00 0.00 64 1007.5
20260506011620 17 321 0.0 0.0 0.00 0.00 0.00 64 1007.4
20260506011113 17 321 0.0 3.2 0.00 0.00 0.00 63 1007.3
20260506010602 17 321 0.0 3.2 0.00 0.00 0.00 63 1007.3
20260506010101 17 321 0.0 6.4 0.00 0.00 0.00 62 1007.3
20260506005551 17 321 0.0 6.4 0.00 0.00 0.00 63 1007.2
20260506005321 17 322 0.0 0.0 0.00 0.00 0.00 64 1007.0
20260506004549 17 323 0.0 1.6 0.00 0.00 0.00 64 1007.0
20260506004051 17 323 0.0 4.8 0.00 0.00 0.00 62 1007.0
20260506004047 17 323 0.0 1.6 0.00 0.00 0.00 64 1007.1
20260506003313 17 323 1.6 6.4 0.00 0.00 0.00 61 1007.0
20260506002815 17 336 0.0 6.4 0.00 0.00 0.00 61 1006.9
20260506002701 17 338 0.0 6.4 0.00 0.00 0.00 63 1006.8
20260506001542 17 338 0.0 6.4 0.00 0.00 0.00 61 1006.7
20260506001043 17 338 0.0 3.2 0.00 0.00 0.00 60 1006.6
20260506000541 18 338 0.0 0.0 0.00 0.00 0.00 60 1006.3
20260506000039 18 338 0.0 0.0 0.00 0.00 0.00 60 1006.0
20260505235539 18 338 0.0 1.6 0.00 0.00 0.00 59 1006.0
20260505235038 18 338 0.0 3.2 0.00 0.00 0.00 59 1006.0
20260505234535 18 338 0.0 3.2 0.00 0.00 0.00 60 1005.9
20260505234033 18 339 0.0 0.0 0.00 0.00 0.00 59 1005.5
20260505233533 18 339 0.0 3.2 0.00 0.00 0.00 58 1005.3
20260505233029 18 339 0.0 9.7 0.00 0.00 0.00 60 1005.4
20260505232803 18 339 0.0 9.7 0.00 0.00 0.00 59 1005.4
20260505232029 18 339 1.6 9.7 0.00 0.00 0.00 58 1005.4
20260505231532 18 340 3.2 9.7 0.00 0.00 0.00 58 1005.5
20260505231526 18 319 3.2 9.7 0.00 0.00 0.00 57 1005.7
20260505230519 18 305 1.6 12.9 0.00 0.00 0.00 56 1005.5
20260505230011 18 344 6.4 27.4 0.00 0.00 0.00 55 1005.7
20260505225505 18 355 9.7 27.4 0.00 0.00 0.00 55 1005.9
20260505225003 18 328 9.7 27.4 0.00 0.00 0.00 55 1006.1
20260505224734 18 257 8.0 27.4 0.00 0.00 0.00 54 1004.2
20260505224001 18 355 8.0 20.9 0.00 0.00 0.00 54 1003.9
20260505223502 18 288 8.0 24.1 0.00 0.00 0.00 54 1003.6
20260505223001 19 232 9.7 24.1 0.00 0.00 0.00 53 1003.6
20260505222735 19 341 9.7 24.1 0.00 0.00 0.00 53 1003.6
20260505222003 19 273 9.7 32.2 0.00 0.00 0.00 53 1003.6
20260505221502 20 221 9.7 32.2 0.00 0.00 0.00 52 1003.5
20260505221233 20 273 8.0 32.2 0.00 0.00 0.00 52 1003.5
20260505220503 20 267 8.0 32.2 0.00 0.00 0.00 52 1003.5
20260505215956 20 240 8.0 27.4 0.00 0.00 0.00 50 1003.4
20260505215446 20 161 9.7 29.0 0.00 0.00 0.00 50 1003.3
20260505214945 21 228 9.7 30.6 0.00 0.00 0.00 49 1003.3
20260505214445 21 323 9.7 30.6 0.00 0.00 0.00 49 1003.4
20260505213948 21 244 9.7 35.4 0.00 0.00 0.00 49 1003.3
20260505213446 21 267 11.3 35.4 0.00 0.00 0.00 48 1003.2
20260505212945 21 240 11.3 37.0 0.00 0.00 0.00 47 1003.2
20260505212446 21 245 9.7 40.2 0.00 0.00 0.00 47 1003.4
20260505211947 21 246 9.7 40.2 0.00 0.00 0.00 47 1003.0
20260505211448 21 223 9.7 30.6 0.00 0.00 0.00 48 1002.9
20260505210947 21 246 11.3 30.6 0.00 0.00 0.00 50 1002.9
20260505210446 21 217 12.9 30.6 0.00 0.00 0.00 48 1003.0
20260505210217 21 253 16.1 40.2 0.00 0.00 0.00 47 1003.0
20260505205447 21 211 12.9 40.2 0.00 0.00 0.00 47 1003.1
20260505204943 22 263 8.0 32.2 0.00 0.00 0.00 48 1003.1
20260505204445 22 306 9.7 32.2 0.00 0.00 0.00 47 1002.9
20260505203943 22 246 11.3 32.2 0.00 0.00 0.00 47 1003.1
20260505203714 22 198 11.3 37.0 0.00 0.00 0.00 46 1003.0
20260505202945 22 279 11.3 37.0 0.00 0.00 0.00 47 1003.1
20260505202442 22 257 8.0 37.0 0.00 0.00 0.00 47 1003.1
20260505201934 22 250 8.0 29.0 0.00 0.00 0.00 47 1003.2
20260505201424 22 226 12.9 29.0 0.00 0.00 0.00 46 1003.1
20260505200923 23 290 14.5 43.5 0.00 0.00 0.00 45 1003.2
20260505200913 23 226 11.3 43.5 0.00 0.00 0.00 45 1003.2
20260505200143 23 222 9.7 38.6 0.00 0.00 0.00 46 1003.2
20260505195403 23 162 11.3 38.6 0.00 0.00 0.00 45 1003.3
20260505194902 23 255 9.7 27.4 0.00 0.00 0.00 47 1003.3
20260505194634 23 107 9.7 29.0 0.00 0.00 0.00 47 1003.4
20260505193901 23 196 9.7 30.6 0.00 0.00 0.00 46 1003.5
20260505193401 23 69 9.7 30.6 0.00 0.00 0.00 47 1003.5
20260505192901 23 261 8.0 30.6 0.00 0.00 0.00 45 1003.6
20260505192359 23 257 9.7 30.6 0.00 0.00 0.00 45 1003.6
20260505191858 23 349 9.7 25.7 0.00 0.00 0.00 49 1003.8
20260505191358 23 19 9.7 27.4 0.00 0.00 0.00 46 1003.8
20260505190857 23 128 8.0 27.4 0.00 0.00 0.00 49 1003.9
20260505190357 23 218 8.0 27.4 0.00 0.00 0.00 44 1004.1
20260505185858 23 288 6.4 27.4 0.00 0.00 0.00 45 1004.3
20260505185628 24 239 4.8 16.1 0.00 0.00 0.00 44 1004.2
20260505184858 24 272 4.8 22.5 0.00 0.00 0.00 44 1004.2
20260505184404 23 201 6.4 22.5 0.00 0.00 0.00 45 1004.3
20260505184359 23 92 4.8 22.5 0.00 0.00 0.00 45 1004.3
20260505183358 23 236 8.0 43.5 0.00 0.00 0.00 46 1004.4
20260505182851 23 281 11.3 43.5 0.00 0.00 0.00 44 1004.5
20260505182350 23 267 12.9 43.5 0.00 0.00 0.00 44 1004.6
20260505181845 23 206 11.3 43.5 0.00 0.00 0.00 42 1004.5
20260505181339 24 178 11.3 30.6 0.00 0.00 0.00 43 1004.5
20260505180827 24 153 11.3 30.6 0.00 0.00 0.00 44 1004.4
20260505180322 24 234 9.7 32.2 0.00 0.00 0.00 43 1004.6
20260505175811 24 246 11.3 32.2 0.00 0.00 0.00 43 1004.6
20260505175542 25 129 11.3 32.2 0.00 0.00 0.00 43 1004.7
20260505174800 25 207 9.7 32.2 0.00 0.00 0.00 41 1004.9
20260505174529 26 252 8.0 29.0 0.00 0.00 0.00 41 1004.8
20260505173752 26 146 6.4 20.9 0.00 0.00 0.00 42 1004.8
20260505173515 26 215 6.4 19.3 0.00 0.00 0.00 40 1004.8
20260505172740 26 213 4.8 17.7 0.00 0.00 0.00 43 1004.8
20260505172229 26 242 4.8 20.9 0.00 0.00 0.00 40 1004.9
20260505171729 26 44 3.2 20.9 0.00 0.00 0.00 41 1004.9
20260505171223 26 158 4.8 16.1 0.00 0.00 0.00 42 1004.9
20260505170713 26 192 3.2 16.1 0.00 0.00 0.00 41 1005.1
20260505170210 26 30 3.2 12.9 0.00 0.00 0.00 43 1005.0
20260505165701 26 221 3.2 12.9 0.00 0.00 0.00 41 1005.2
20260505165200 26 292 3.2 16.1 0.00 0.00 0.00 40 1005.5
20260505164653 25 284 6.4 16.1 0.00 0.00 0.00 41 1005.6
20260505164143 25 304 6.4 16.1 0.00 0.00 0.00 42 1005.7
20260505163640 25 292 6.4 17.7 0.00 0.00 0.00 41 1005.7
20260505163135 25 307 6.4 25.7 0.00 0.00 0.00 39 1005.7
20260505162901 25 207 6.4 25.7 0.00 0.00 0.00 44 1005.8
20260505162118 25 216 6.4 16.1 0.00 0.00 0.00 45 1006.0
20260505161611 25 263 6.4 22.5 0.00 0.00 0.00 41 1006.1
20260505161111 24 257 4.8 22.5 0.00 0.00 0.00 40 1006.3
20260505160605 24 84 4.8 22.5 0.00 0.00 0.00 43 1006.2
20260505160337 24 208 4.8 22.5 0.00 0.00 0.00 43 1006.4
20260505153105 23 267 8.0 27.4 0.00 0.00 0.00 44 1006.9
20260505152606 22 231 9.7 27.4 0.00 0.00 0.00 44 1006.8
20260505152106 23 266 8.0 25.7 0.00 0.00 0.00 43 1007.0
20260505151606 22 186 4.8 14.5 0.00 0.00 0.00 43 1007.1
20260505151105 22 248 4.8 14.5 0.00 0.00 0.00 47 1007.2
20260505150608 22 197 4.8 14.5 0.00 0.00 0.00 47 1007.2
20260505150105 22 31 6.4 16.1 0.00 0.00 0.00 49 1007.2
20260505140514 19 275 1.6 8.0 0.00 0.00 0.00 51 1006.6
20260505124935 15 263 8.0 24.1 0.00 0.00 0.00 59 1007.5
20260505124435 15 280 9.7 24.1 0.00 0.00 0.00 59 1007.3
20260505124206 15 232 8.0 19.3 0.00 0.00 0.00 60 1007.2
20260505123434 14 267 4.8 14.5 0.00 0.00 0.00 62 1007.2
20260505123207 14 349 4.8 14.5 0.00 0.00 0.00 62 1007.3
20260505122704 14 260 3.2 14.5 0.00 0.00 0.00 63 1007.3
20260505122159 13 296 4.8 14.5 0.00 0.00 0.00 64 1007.3
20260505121416 13 260 4.8 14.5 0.00 0.00 0.00 64 1007.3
20260505120905 13 261 4.8 14.5 0.00 0.00 0.00 64 1007.3
20260505120405 13 242 3.2 14.5 0.00 0.00 0.00 65 1007.2
20260505115905 12 269 4.8 14.5 0.00 0.00 0.00 66 1007.3
20260505115638 12 285 4.8 14.5 0.00 0.00 0.00 67 1007.5
20260505115136 12 249 4.8 16.1 0.00 0.00 0.00 69 1007.6
20260505114405 11 350 4.8 16.1 0.00 0.00 0.00 69 1007.7
20260505113905 11 213 3.2 11.3 0.00 0.00 0.00 70 1007.7
20260505113405 11 296 3.2 9.7 0.00 0.00 0.00 71 1007.7
20260505112909 11 44 3.2 8.0 0.00 0.00 0.00 72 1007.7
20260505112905 11 279 3.2 9.7 0.00 0.00 0.00 72 1007.7
20260505111848 10 266 3.2 8.0 0.00 0.00 0.00 73 1007.7
20260505111342 10 266 1.6 9.7 0.00 0.00 0.00 73 1007.7
20260505111112 10 246 1.6 9.7 0.00 0.00 0.00 73 1007.7
20260505110341 10 246 1.6 8.0 0.00 0.00 0.00 74 1007.8
20260505110114 10 279 1.6 8.0 0.00 0.00 0.00 73 1007.6
20260505101817 10 258 1.6 8.0 0.00 0.00 0.00 73 1007.7
20260505101316 10 292 3.2 9.7 0.00 0.00 0.00 73 1007.7
20260505100809 9 224 3.2 9.7 0.00 0.00 0.00 74 1007.7
20260505100532 9 279 1.6 6.4 0.00 0.00 0.00 75 1007.6
20260505095757 8 267 1.6 8.0 0.00 0.00 0.00 75 1007.6
20260505095247 8 263 1.6 8.0 0.00 0.00 0.00 76 1007.5
20260505094745 8 284 1.6 6.4 0.00 0.00 0.00 75 1007.6
20260505094239 8 273 0.0 4.8 0.00 0.00 0.00 75 1007.6
20260505093730 8 273 0.0 3.2 0.00 0.00 0.00 75 1007.6
20260505093225 8 273 0.0 1.6 0.00 0.00 0.00 75 1007.6
20260505092719 8 273 0.0 3.2 0.00 0.00 0.00 74 1007.6
20260505092213 8 273 0.0 1.6 0.00 0.00 0.00 73 1007.6
20260505091934 9 273 0.0 0.0 0.00 0.00 0.00 73 1007.6
20260505091157 9 273 0.0 0.0 0.00 0.00 0.00 72 1007.7
20260505090655 9 273 0.0 4.8 0.00 0.00 0.00 72 1007.7
20260505090417 9 273 0.0 4.8 0.00 0.00 0.00 72 1007.7
20260505085645 9 273 0.0 4.8 0.00 0.00 0.00 71 1007.7
20260505085133 10 273 0.0 4.8 0.00 0.00 0.00 70 1007.7
20260505084632 10 273 0.0 4.8 0.00 0.00 0.00 69 1007.8
20260505084126 10 273 0.0 3.2 0.00 0.00 0.00 70 1008.0
20260505083615 10 275 1.6 6.4 0.00 0.00 0.00 69 1008.0
20260505083114 10 275 1.6 6.4 0.00 0.00 0.00 69 1007.8
20260505082603 10 257 0.0 4.8 0.00 0.00 0.00 68 1008.0
20260505082102 10 257 0.0 6.4 0.00 0.00 0.00 68 1008.0
20260505081555 10 254 0.0 6.4 0.00 0.00 0.00 68 1008.0
20260505081050 10 252 0.0 6.4 0.00 0.00 0.00 68 1008.1
20260505080543 10 252 0.0 4.8 0.00 0.00 0.00 68 1008.1
20260505080038 10 252 0.0 4.8 0.00 0.00 0.00 68 1008.0
20260505075529 10 252 0.0 9.7 0.00 0.00 0.00 67 1008.1
20260505075025 10 250 0.0 9.7 0.00 0.00 0.00 67 1008.0
20260505074512 10 238 1.6 9.7 0.00 0.00 0.00 66 1008.1
20260505074011 10 267 1.6 9.7 0.00 0.00 0.00 66 1008.1
20260505073505 11 299 0.0 4.8 0.00 0.00 0.00 65 1008.2
20260505073000 11 311 0.0 0.0 0.00 0.00 0.00 64 1008.1
20260505072726 11 308 0.0 0.0 0.00 0.00 0.00 64 1008.1
20260505071942 11 308 0.0 0.0 0.00 0.00 0.00 63 1008.0
20260505071441 11 309 0.0 0.0 0.00 0.00 0.00 61 1008.0
20260505071208 12 309 0.0 0.0 0.00 0.00 0.00 60 1008.1
20260505070429 12 309 0.0 6.4 0.00 0.00 0.00 59 1008.0
20260505065923 12 309 0.0 6.4 0.00 0.00 0.00 58 1008.0
20260505065414 12 309 1.6 6.4 0.00 0.00 0.00 58 1008.1
20260505064907 12 309 1.6 6.4 0.00 0.00 0.00 57 1008.1
20260505064400 12 271 1.6 6.4 0.00 0.00 0.00 57 1008.1
20260505063858 12 268 1.6 9.7 0.00 0.00 0.00 56 1008.1
20260505063355 13 288 3.2 9.7 0.00 0.00 0.00 56 1008.0
20260505062848 13 288 4.8 9.7 0.00 0.00 0.00 56 1008.1
20260505062337 13 250 3.2 9.7 0.00 0.00 0.00 56 1007.8
20260505061831 13 259 3.2 9.7 0.00 0.00 0.00 56 1007.8
20260505061330 13 272 1.6 9.7 0.00 0.00 0.00 56 1007.8
20260505060823 13 11 3.2 9.7 0.00 0.00 0.00 55 1008.0
20260505060317 13 306 4.8 12.9 0.00 0.00 0.00 55 1008.0
20260505060309 13 271 3.2 12.9 0.00 0.00 0.00 55 1008.0
20260505055301 13 273 4.8 12.9 0.00 0.00 0.00 54 1008.0
20260505054759 13 249 4.8 11.3 0.00 0.00 0.00 54 1007.8
20260505054249 13 297 4.8 17.7 0.00 0.00 0.00 53 1007.8
20260505053747 13 257 4.8 17.7 0.00 0.00 0.00 53 1007.8
20260505053237 13 300 6.4 17.7 0.00 0.00 0.00 53 1008.0
20260505053007 13 277 6.4 17.7 0.00 0.00 0.00 53 1007.8
20260505052229 14 257 4.8 14.5 0.00 0.00 0.00 53 1007.8
20260505051952 14 216 4.8 14.5 0.00 0.00 0.00 53 1007.7
20260505051221 14 322 4.8 14.5 0.00 0.00 0.00 52 1007.8
20260505050719 14 275 4.8 14.5 0.00 0.00 0.00 52 1008.0
20260505050218 14 252 4.8 14.5 0.00 0.00 0.00 52 1007.8
20260505041218 15 224 6.4 20.9 0.00 0.00 0.00 51 1007.4
20260505040950 14 267 4.8 16.1 0.00 0.00 0.00 52 1007.4
20260505040223 14 304 4.8 22.5 0.00 0.00 0.00 52 1007.2
20260505040219 14 267 4.8 22.5 0.00 0.00 0.00 52 1007.4
20260505035448 14 265 4.8 14.5 0.00 0.00 0.00 53 1007.2
20260505034708 13 179 4.8 14.5 0.00 0.00 0.00 54 1007.3
20260505034206 13 265 6.4 20.9 0.00 0.00 0.00 54 1007.2
20260505033700 13 303 4.8 20.9 0.00 0.00 0.00 55 1007.3
20260505033150 13 246 3.2 11.3 0.00 0.00 0.00 55 1007.3
20260505032648 13 263 4.8 14.5 0.00 0.00 0.00 56 1007.2
20260505032137 13 250 3.2 14.5 0.00 0.00 0.00 56 1007.2
20260505031635 13 252 3.2 12.9 0.00 0.00 0.00 57 1007.2
20260505031126 12 277 3.2 12.9 0.00 0.00 0.00 57 1007.2
20260505030619 12 259 3.2 12.9 0.00 0.00 0.00 58 1007.2
20260505030118 12 251 3.2 12.9 0.00 0.00 0.00 58 1007.2
20260505025611 12 262 1.6 9.7 0.00 0.00 0.00 59 1007.2
20260505025105 12 246 3.2 16.1 0.00 0.00 0.00 61 1007.2
20260505024554 12 311 4.8 16.1 0.00 0.00 0.00 61 1007.3
20260505024048 11 250 3.2 9.7 0.00 0.00 0.00 63 1007.2
20260505023547 11 259 3.2 12.9 0.00 0.00 0.00 64 1007.2
20260505023041 11 274 1.6 12.9 0.00 0.00 0.00 65 1007.1
20260505022535 11 259 1.6 8.0 0.00 0.00 0.00 65 1007.1
20260505022025 11 268 1.6 8.0 0.00 0.00 0.00 65 1007.0
20260505021518 11 265 0.0 8.0 0.00 0.00 0.00 66 1006.9
20260505021017 11 261 0.0 8.0 0.00 0.00 0.00 64 1006.8
20260505020512 11 286 0.0 0.0 0.00 0.00 0.00 66 1006.7
20260505020005 11 286 0.0 0.0 0.00 0.00 0.00 65 1006.7
20260505015459 11 286 0.0 1.6 0.00 0.00 0.00 64 1006.7